WXM80 ListenWXM80 Stop

You find our weather info also at:

UK Metoffice

WeatherCloud

Weather Underground

Northeastern Weather Network

AWEKAS

Citizen Weather Observer Program (CWOP)

HAMweather, WeatherForYou, PWS Weather


Weather Underground History page Text

Daily Summary for January 12, 2017 Units:  Metric    English   Both
« Previous Day
Next Day »
Daily Weekly Monthly Yearly Custom
  High: Low: Average:
Temperature: 17.8 °C 8.3 °C 12.5 °C
Dew Point: 13.3 °C 7.7 °C 10.4 °C
Humidity: 97 % 73 % 88 %
Wind Speed: 17.2 km/h 0.5 km/h 7.4 km/h
Wind Gust: 37 km/h - -
Wind:- - SSW
Pressure: 1021.2 hPa 1013.4 hPa -
Precipitation: 0 mm    
Historical Graphs
 
 
Tabular Data for January 12, 2017
Time Temperature Dew Point Pressure Wind Wind Speed Wind Gust Humidity Rainfall Rate (Hourly)
00:00 8.3 °C 7.7 °C 1021.2 hPa SSW 5.8 km/h 7.4 km/h 96 % 1.02 mm
00:05 8.3 °C 7.7 °C 1020.9 hPa SSW 5.8 km/h 7.4 km/h 96 % 1.27 mm
00:10 8.4 °C 7.8 °C 1020.9 hPa SSE 7.9 km/h 16.7 km/h 96 % 1.02 mm
00:15 8.5 °C 7.9 °C 1020.9 hPa South 11.9 km/h 12.9 km/h 96 % 1.02 mm
00:20 8.6 °C 8 °C 1020.9 hPa SSW 8.4 km/h 16.1 km/h 96 % 1.02 mm
00:25 8.7 °C 8.1 °C 1020.5 hPa SW 7.7 km/h 11.1 km/h 96 % 1.02 mm
00:30 8.7 °C 8.1 °C 1020.5 hPa SSW 10.3 km/h 16.7 km/h 96 % 1.02 mm
00:35 8.7 °C 8.1 °C 1020.5 hPa South 7.7 km/h 14.8 km/h 96 % 1.27 mm
00:40 8.7 °C 8.1 °C 1020.5 hPa South 6.1 km/h 14.8 km/h 96 % 1.02 mm
00:45 8.8 °C 8.2 °C 1020.5 hPa WSW 10.1 km/h 18.5 km/h 96 % 1.02 mm
00:50 8.8 °C 8.2 °C 1020.5 hPa SSW 9.3 km/h 14.5 km/h 96 % 1.02 mm
00:55 8.8 °C 8.2 °C 1020.5 hPa SSW 6.8 km/h 13 km/h 96 % 1.02 mm
01:00 8.8 °C 8.2 °C 1020.2 hPa SW 5 km/h 11.3 km/h 96 % 1.02 mm
01:06 8.8 °C 8.2 °C 1020.2 hPa SSW 12.4 km/h 19.3 km/h 96 % 0.76 mm
01:11 8.9 °C 8.3 °C 1020.2 hPa WSW 10.5 km/h 14.5 km/h 96 % 0.76 mm
01:16 8.9 °C 8.5 °C 1020.2 hPa SSW 7.9 km/h 22.2 km/h 97 % 1.02 mm
01:21 9 °C 8.6 °C 1019.9 hPa SSW 8.5 km/h 19.3 km/h 97 % 0.76 mm
01:26 9.1 °C 8.6 °C 1019.9 hPa South 12.9 km/h 20.4 km/h 97 % 0.76 mm
01:31 9.2 °C 8.6 °C 1019.9 hPa SSW 7.2 km/h 16.1 km/h 96 % 0.76 mm
01:36 9.2 °C 8.6 °C 1019.9 hPa SSW 11.1 km/h 20.4 km/h 96 % 0.51 mm
01:41 9.2 °C 8.6 °C 1019.9 hPa SSW 10 km/h 24.1 km/h 96 % 0.51 mm
01:46 9.3 °C 8.7 °C 1019.9 hPa SW 5.3 km/h 18.5 km/h 96 % 0.76 mm
01:51 9.3 °C 8.7 °C 1019.9 hPa SW 3.4 km/h 11.3 km/h 96 % 0.76 mm
01:56 9.3 °C 8.7 °C 1019.9 hPa SW 5 km/h 16.1 km/h 96 % 0.51 mm
02:01 9.3 °C 8.7 °C 1019.9 hPa SW 10.8 km/h 16.7 km/h 96 % 0.51 mm
02:06 9.3 °C 8.7 °C 1019.9 hPa SSW 9.5 km/h 17.7 km/h 96 % 0.51 mm
02:12 9.3 °C 8.7 °C 1019.9 hPa SSW 6.8 km/h 11.1 km/h 96 % 0.51 mm
02:17 9.2 °C 8.6 °C 1019.9 hPa SSW 8.2 km/h 16.7 km/h 96 % 0.51 mm
02:22 9.2 °C 8.6 °C 1019.5 hPa SSW 6.6 km/h 12.9 km/h 96 % 0.51 mm
02:27 9.2 °C 8.6 °C 1019.5 hPa SSW 7.6 km/h 18.5 km/h 96 % 0.51 mm
02:32 9.2 °C 8.6 °C 1019.9 hPa SSW 6.3 km/h 16.7 km/h 96 % 0.51 mm
02:37 9.2 °C 8.6 °C 1019.5 hPa SSW 7.9 km/h 11.3 km/h 96 % 0.51 mm
02:42 9.2 °C 8.6 °C 1019.5 hPa SSW 4.8 km/h 14.8 km/h 96 % 0.51 mm
02:47 9.2 °C 8.6 °C 1019.5 hPa SW 14.2 km/h 18.5 km/h 96 % 0.25 mm
02:52 9.2 °C 8.6 °C 1019.9 hPa SW 6.8 km/h 17.7 km/h 96 % 0.25 mm
02:57 9.2 °C 8.6 °C 1019.5 hPa SSW 10.6 km/h 18.5 km/h 96 % 0.25 mm
03:02 9.2 °C 8.6 °C 1019.5 hPa South 5 km/h 14.8 km/h 96 % 0.51 mm
03:07 9.2 °C 8.6 °C 1019.5 hPa SSW 8.7 km/h 16.7 km/h 96 % 0.51 mm
03:12 9.2 °C 8.6 °C 1019.9 hPa SSW 9 km/h 13 km/h 96 % 0.51 mm
03:17 9.2 °C 8.6 °C 1019.9 hPa South 6.1 km/h 9.3 km/h 96 % 0.25 mm
03:22 9.2 °C 8.6 °C 1019.9 hPa South 9.3 km/h 14.8 km/h 96 % 0.25 mm
03:27 9.2 °C 8.6 °C 1019.9 hPa SSW 7.2 km/h 13 km/h 96 % 0.25 mm
03:32 9.2 °C 8.6 °C 1019.5 hPa SSW 9 km/h 25.9 km/h 96 % 0.25 mm
03:38 9.3 °C 8.7 °C 1019.5 hPa SSW 6.3 km/h 9.7 km/h 96 % 0.25 mm
03:43 9.3 °C 8.7 °C 1019.2 hPa SW 2.3 km/h 9.3 km/h 96 % 0.25 mm
03:48 9.4 °C 8.8 °C 1019.5 hPa SSW 10.8 km/h 17.7 km/h 96 % 0.25 mm
03:53 9.4 °C 9 °C 1019.2 hPa SSW 5 km/h 11.1 km/h 97 % 0.51 mm
03:58 9.5 °C 8.9 °C 1019.2 hPa South 6.6 km/h 11.1 km/h 96 % 0.51 mm
04:03 9.5 °C 8.9 °C 1018.8 hPa South 9.2 km/h 16.7 km/h 96 % 0.25 mm
04:08 9.6 °C 8.9 °C 1018.8 hPa South 6.6 km/h 13 km/h 96 % 0.25 mm
04:13 9.6 °C 8.9 °C 1018.8 hPa SW 7.4 km/h 16.7 km/h 96 % 0.25 mm
04:18 9.6 °C 9 °C 1018.8 hPa South 6.9 km/h 11.1 km/h 96 % 0.25 mm
04:23 9.6 °C 9 °C 1018.8 hPa SSE 7.1 km/h 14.8 km/h 96 % 0.25 mm
04:28 9.6 °C 8.9 °C 1018.5 hPa SW 8.2 km/h 11.3 km/h 96 % 0.25 mm
04:33 9.6 °C 8.9 °C 1018.5 hPa SSW 4 km/h 8 km/h 96 % 0.25 mm
04:38 9.5 °C 8.9 °C 1018.8 hPa SSW 5.3 km/h 9.3 km/h 96 % 0.25 mm
04:43 9.4 °C 8.8 °C 1018.5 hPa SSW 1.9 km/h 5.6 km/h 96 % 0.25 mm
04:49 9.3 °C 8.7 °C 1018.2 hPa SSW 5.6 km/h 9.3 km/h 96 % 0 mm
04:54 9.3 °C 8.7 °C 1017.8 hPa South 4.8 km/h 13 km/h 96 % 0 mm
04:59 9.3 °C 8.7 °C 1018.2 hPa South 6.3 km/h 9.3 km/h 96 % 0.25 mm
05:04 9.3 °C 8.7 °C 1017.8 hPa SSW 9.8 km/h 18.5 km/h 96 % 0.25 mm
05:09 9.3 °C 8.7 °C 1018.2 hPa SSW 6.8 km/h 11.1 km/h 96 % 0.25 mm
05:14 9.3 °C 8.7 °C 1018.2 hPa SW 8.7 km/h 14.8 km/h 96 % 0.25 mm
05:19 9.3 °C 8.7 °C 1018.2 hPa SSW 9 km/h 14.8 km/h 96 % 0.25 mm
05:24 9.2 °C 8.6 °C 1018.2 hPa SSW 12.9 km/h 20.9 km/h 96 % 0 mm
05:29 9.2 °C 8.6 °C 1018.2 hPa SSW 9.7 km/h 14.5 km/h 96 % 0 mm
05:34 9.2 °C 8.6 °C 1018.2 hPa South 9.7 km/h 16.1 km/h 96 % 0 mm
05:39 9.2 °C 8.6 °C 1017.8 hPa SSW 8 km/h 19.3 km/h 96 % 0 mm
05:44 9.2 °C 8.6 °C 1017.8 hPa SW 10.9 km/h 16.1 km/h 96 % 0.25 mm
05:49 9.2 °C 8.6 °C 1017.8 hPa South 4.5 km/h 11.3 km/h 96 % 0.25 mm
05:54 9.1 °C 8.5 °C 1017.5 hPa South 9.7 km/h 14.5 km/h 96 % 0 mm
05:59 9.1 °C 8.5 °C 1017.5 hPa South 6.9 km/h 8 km/h 96 % 0 mm
06:04 9.1 °C 8.5 °C 1017.5 hPa South 9.7 km/h 19.3 km/h 96 % 0 mm
06:09 9.1 °C 8.5 °C 1017.5 hPa SSW 3.2 km/h 16.1 km/h 96 % 0 mm
06:14 9.1 °C 8.5 °C 1017.8 hPa SSW 8 km/h 16.1 km/h 96 % 0 mm
06:19 9.2 °C 8.6 °C 1017.8 hPa SW 6.1 km/h 8 km/h 96 % 0.25 mm
06:24 9.2 °C 8.6 °C 1017.8 hPa SSW 8 km/h 14.5 km/h 96 % 0 mm
06:29 9.2 °C 8.6 °C 1017.8 hPa South 7.4 km/h 14.8 km/h 96 % 0.25 mm
06:34 9.2 °C 8.6 °C 1017.8 hPa South 10.3 km/h 12.9 km/h 96 % 0.25 mm
06:39 9.2 °C 8.6 °C 1017.8 hPa South 4.2 km/h 13 km/h 96 % 0.25 mm
06:44 9.2 °C 8.6 °C 1017.8 hPa SSW 8 km/h 12.9 km/h 96 % 0 mm
06:49 9.2 °C 8.6 °C 1017.8 hPa SW 8 km/h 16.1 km/h 96 % 0 mm
06:54 9.2 °C 8.6 °C 1017.8 hPa South 7.1 km/h 11.1 km/h 96 % 0.25 mm
06:59 9.2 °C 8.6 °C 1017.5 hPa SSW 7.2 km/h 9.7 km/h 96 % 0.25 mm
07:04 9.3 °C 8.7 °C 1017.8 hPa South 8.5 km/h 18.5 km/h 96 % 0.25 mm
07:09 9.3 °C 8.7 °C 1017.8 hPa SSW 3.2 km/h 16.1 km/h 96 % 0 mm
07:14 9.3 °C 8.7 °C 1017.8 hPa SSW 4.8 km/h 14.5 km/h 96 % 0 mm
07:19 9.3 °C 8.7 °C 1017.8 hPa SSW 9.7 km/h 14.5 km/h 96 % 0 mm
07:24 9.3 °C 8.7 °C 1017.8 hPa SSW 3.2 km/h 11.3 km/h 96 % 0 mm
07:29 9.4 °C 8.8 °C 1017.8 hPa South 5.6 km/h 11.1 km/h 96 % 0 mm
07:34 9.4 °C 8.8 °C 1017.8 hPa SW 8 km/h 16.1 km/h 96 % 0 mm
07:39 9.4 °C 8.8 °C 1017.8 hPa SW 1.6 km/h 9.7 km/h 96 % 0 mm
07:44 9.4 °C 8.8 °C 1017.8 hPa SSW 3.2 km/h 11.3 km/h 96 % 0 mm
07:49 9.5 °C 8.9 °C 1017.8 hPa SW 4 km/h 9.3 km/h 96 % 0 mm
07:54 9.5 °C 8.9 °C 1017.8 hPa SSW 8 km/h 11.3 km/h 96 % 0 mm
07:59 9.6 °C 8.9 °C 1017.8 hPa SSW 8.2 km/h 18.5 km/h 96 % 0 mm
08:04 9.6 °C 9 °C 1017.8 hPa SSW 8 km/h 18.5 km/h 96 % 0 mm
08:09 9.7 °C 9.1 °C 1017.5 hPa South 7.7 km/h 14.8 km/h 96 % 0 mm
08:14 9.7 °C 9.1 °C 1017.5 hPa SW 1.9 km/h 5.6 km/h 96 % 0 mm
08:19 9.7 °C 9.1 °C 1017.8 hPa SW 3.1 km/h 8 km/h 96 % 0.25 mm
08:24 9.7 °C 9.1 °C 1017.8 hPa South 3.5 km/h 11.3 km/h 96 % 0.25 mm
08:29 9.8 °C 9.2 °C 1017.8 hPa SSW 6.4 km/h 11.3 km/h 96 % 0.25 mm
08:34 9.9 °C 9.3 °C 1017.8 hPa South 4.5 km/h 7.4 km/h 96 % 0.25 mm
08:39 9.9 °C 9.3 °C 1017.8 hPa SSW 3.2 km/h 8 km/h 96 % 0.25 mm
08:44 10 °C 9.4 °C 1017.8 hPa South 7.2 km/h 16.7 km/h 96 % 0.25 mm
08:50 10.1 °C 9.4 °C 1017.8 hPa SW 7.2 km/h 9.7 km/h 96 % 0.25 mm
08:55 10.2 °C 9.6 °C 1017.8 hPa SSW 4 km/h 11.1 km/h 96 % 0.25 mm
09:00 10.2 °C 9.6 °C 1017.8 hPa SSW 4.2 km/h 7.4 km/h 96 % 0.25 mm
09:05 10.3 °C 9.7 °C 1017.8 hPa West 0.6 km/h 9.3 km/h 96 % 0.25 mm
09:10 10.4 °C 9.8 °C 1017.8 hPa SSW 3.1 km/h 7.4 km/h 96 % 0.25 mm
09:15 10.5 °C 9.9 °C 1017.8 hPa SW 7.6 km/h 13 km/h 96 % 0.25 mm
09:20 10.6 °C 10 °C 1017.8 hPa SSW 5.5 km/h 13 km/h 96 % 0 mm
09:25 10.7 °C 10.1 °C 1017.8 hPa SSW 7.1 km/h 13 km/h 96 % 0 mm
09:30 10.8 °C 10.2 °C 1017.8 hPa SW 5.5 km/h 6.4 km/h 96 % 0 mm
09:35 10.9 °C 10.3 °C 1017.8 hPa SW 4.8 km/h 8 km/h 96 % 0 mm
09:40 11.1 °C 10.4 °C 1017.8 hPa WSW 3.7 km/h 11.1 km/h 96 % 0 mm
09:45 11.2 °C 10.6 °C 1017.5 hPa SW 4.2 km/h 11.3 km/h 96 % 0 mm
09:50 11.3 °C 10.7 °C 1017.5 hPa SSW 8 km/h 14.8 km/h 96 % 0 mm
09:55 11.4 °C 10.7 °C 1017.5 hPa WSW 7.9 km/h 14.5 km/h 95 % 0 mm
10:00 11.6 °C 10.8 °C 1017.5 hPa SSW 5.5 km/h 13 km/h 95 % 0 mm
10:05 11.7 °C 10.9 °C 1017.5 hPa SW 7.7 km/h 14.8 km/h 95 % 0 mm
10:10 11.7 °C 10.9 °C 1017.5 hPa SSW 7.7 km/h 11.1 km/h 95 % 0 mm
10:15 11.8 °C 10.9 °C 1017.2 hPa SW 8.7 km/h 14.8 km/h 94 % 0 mm
10:20 11.9 °C 10.9 °C 1017.2 hPa South 6.4 km/h 18.5 km/h 94 % 0 mm
10:25 12 °C 11.1 °C 1017.2 hPa SW 2.7 km/h 5.6 km/h 94 % 0 mm
10:30 12.1 °C 11 °C 1017.2 hPa WSW 6.6 km/h 13 km/h 93 % 0 mm
10:35 12.3 °C 11.2 °C 1016.8 hPa South 7.2 km/h 14.5 km/h 93 % 0 mm
10:40 12.3 °C 11.1 °C 1016.8 hPa WSW 8.4 km/h 14.8 km/h 92 % 0 mm
10:41 12.4 °C 11.1 °C 1016.8 hPa SSW 10 km/h 17.7 km/h 92 % 0 mm
10:46 12.6 °C 11.3 °C 1016.5 hPa WSW 5 km/h 11.3 km/h 92 % 0 mm
10:51 12.7 °C 11.4 °C 1016.8 hPa SW 11.1 km/h 16.7 km/h 92 % 0 mm
10:56 12.9 °C 11.5 °C 1016.5 hPa WSW 8.4 km/h 11.1 km/h 91 % 0 mm
11:01 13.2 °C 11.7 °C 1016.5 hPa SW 8 km/h 8 km/h 91 % 0 mm
11:06 13.4 °C 11.8 °C 1016.5 hPa WSW 6 km/h 9.3 km/h 90 % 0 mm
11:11 13.7 °C 12.1 °C 1016.5 hPa SSW 10.5 km/h 18.5 km/h 90 % 0 mm
11:16 13.9 °C 12.1 °C 1016.1 hPa SW 6 km/h 11.1 km/h 89 % 0 mm
11:21 14.2 °C 12.2 °C 1016.1 hPa WSW 9.5 km/h 12.9 km/h 88 % 0 mm
11:26 14.3 °C 12.2 °C 1016.1 hPa SSW 13.8 km/h 20.4 km/h 87 % 0 mm
11:31 14.4 °C 12.1 °C 1016.1 hPa West 13.4 km/h 22.5 km/h 86 % 0 mm
11:36 14.5 °C 12.2 °C 1016.1 hPa SW 1.4 km/h 3.2 km/h 86 % 0 mm
11:41 14.6 °C 12.2 °C 1016.1 hPa WSW 14.6 km/h 20.4 km/h 86 % 0.25 mm
11:46 14.7 °C 12.2 °C 1016.1 hPa SSW 6.9 km/h 13 km/h 85 % 0.25 mm
11:52 14.8 °C 12.3 °C 1015.8 hPa South 10 km/h 20.4 km/h 85 % 0.25 mm
11:57 15 °C 12.5 °C 1015.8 hPa SW 8 km/h 18.5 km/h 85 % 0.25 mm
12:02 15.3 °C 12.8 °C 1015.5 hPa SW 11.3 km/h 24.1 km/h 85 % 0.25 mm
12:07 15.6 °C 12.9 °C 1015.5 hPa SSW 10.6 km/h 37 km/h 84 % 0.25 mm
12:12 15.7 °C 12.8 °C 1015.5 hPa SW 15.3 km/h 18.5 km/h 83 % 0.25 mm
12:17 15.8 °C 12.8 °C 1015.1 hPa SW 17.2 km/h 25.7 km/h 82 % 0.25 mm
12:22 15.9 °C 12.8 °C 1015.1 hPa West 8.5 km/h 22.5 km/h 82 % 0.25 mm
12:27 15.9 °C 12.6 °C 1015.1 hPa WSW 10.5 km/h 16.7 km/h 81 % 0.25 mm
12:32 15.9 °C 12.7 °C 1015.1 hPa SSW 9.8 km/h 25.9 km/h 81 % 0.25 mm
12:37 16.1 °C 12.8 °C 1014.8 hPa SSW 9 km/h 18.5 km/h 81 % 0.25 mm
12:42 16.2 °C 12.9 °C 1014.4 hPa SW 12.1 km/h 16.7 km/h 81 % 0 mm
12:47 16.2 °C 12.8 °C 1014.1 hPa WSW 8.4 km/h 16.7 km/h 80 % 0 mm
12:52 16.3 °C 12.8 °C 1014.1 hPa SW 3.1 km/h 5.6 km/h 80 % 0 mm
12:57 16.3 °C 13 °C 1014.1 hPa SW 2.6 km/h 12.9 km/h 81 % 0 mm
13:02 16.4 °C 13.2 °C 1014.8 hPa SSW 6.3 km/h 11.1 km/h 81 % 0 mm
13:07 16.7 °C 13.3 °C 1014.4 hPa SW 4.3 km/h 12.9 km/h 80 % 0 mm
13:12 17 °C 13.1 °C 1014.4 hPa South 13.4 km/h 18.5 km/h 78 % 0 mm
13:17 17.2 °C 13.1 °C 1014.1 hPa SSW 5.8 km/h 11.1 km/h 77 % 0 mm
13:23 17.2 °C 12.9 °C 1014.1 hPa SSW 10.8 km/h 18.5 km/h 76 % 0 mm
13:28 17.1 °C 13.1 °C 1014.1 hPa SW 5.8 km/h 14.5 km/h 77 % 0 mm
13:33 17.2 °C 12.9 °C 1013.8 hPa SW 6.9 km/h 14.5 km/h 76 % 0 mm
13:38 17.3 °C 13 °C 1013.8 hPa SSW 11.4 km/h 14.5 km/h 76 % 0 mm
13:43 17.4 °C 13.1 °C 1014.1 hPa SW 5.6 km/h 13 km/h 76 % 0 mm
13:48 17.5 °C 13 °C 1014.1 hPa SW 13.7 km/h 19.3 km/h 75 % 0 mm
13:53 17.6 °C 13.1 °C 1013.8 hPa SSW 7.7 km/h 14.8 km/h 75 % 0 mm
13:58 17.7 °C 13.2 °C 1014.1 hPa NW 1 km/h 13 km/h 75 % 0 mm
14:03 17.8 °C 13.3 °C 1014.1 hPa WSW 11.7 km/h 16.7 km/h 75 % 0 mm
14:08 17.8 °C 13.3 °C 1014.1 hPa South 6.9 km/h 9.3 km/h 75 % 0 mm
14:13 17.8 °C 13.1 °C 1014.1 hPa SW 4.2 km/h 11.1 km/h 74 % 0 mm
14:18 17.8 °C 13.3 °C 1014.1 hPa WSW 4.8 km/h 6.4 km/h 75 % 0 mm
14:23 17.8 °C 13.1 °C 1014.1 hPa WSW 9.3 km/h 16.7 km/h 74 % 0 mm
14:28 17.7 °C 12.8 °C 1014.1 hPa SSW 13.8 km/h 20.4 km/h 73 % 0 mm
14:34 17.6 °C 12.9 °C 1013.8 hPa SSE 5.6 km/h 9.7 km/h 74 % 0 mm
14:39 17.6 °C 12.9 °C 1013.8 hPa South 2.9 km/h 5.6 km/h 74 % 0 mm
14:44 17.4 °C 12.8 °C 1013.4 hPa SSW 6.1 km/h 13 km/h 74 % 0 mm
14:49 17.3 °C 12.6 °C 1013.4 hPa South 0.5 km/h 5.6 km/h 74 % 0 mm
14:54 17.2 °C 12.5 °C 1013.8 hPa SSW 3.4 km/h 5.6 km/h 74 % 0 mm
14:59 17.1 °C 12.4 °C 1013.8 hPa SW 9.3 km/h 16.7 km/h 74 % 0 mm
15:04 16.9 °C 12.3 °C 1013.4 hPa SSW 9.7 km/h 19.3 km/h 74 % 0 mm
15:09 16.8 °C 12.1 °C 1013.8 hPa SSW 8 km/h 14.5 km/h 74 % 0 mm
15:14 16.6 °C 12.2 °C 1013.8 hPa SSW 4.8 km/h 19.3 km/h 75 % 0 mm
15:19 16.5 °C 12.1 °C 1013.4 hPa SSW 9 km/h 11.3 km/h 75 % 0 mm
15:24 16.5 °C 12.1 °C 1013.8 hPa SSW 1.6 km/h 12.9 km/h 75 % 0 mm
15:29 16.4 °C 12 °C 1014.1 hPa SSW 3.2 km/h 11.3 km/h 75 % 0 mm
15:34 16.4 °C 11.9 °C 1014.4 hPa SSW 8 km/h 12.9 km/h 75 % 0 mm
15:39 16.3 °C 11.9 °C 1014.4 hPa SW 9.7 km/h 19.3 km/h 75 % 0 mm
15:44 16.2 °C 11.8 °C 1013.8 hPa South 6.1 km/h 11.1 km/h 75 % 0 mm
15:49 16.2 °C 11.9 °C 1013.4 hPa South 3.2 km/h 9.7 km/h 76 % 0 mm
15:54 16.1 °C 11.8 °C 1013.4 hPa South 9.7 km/h 19.3 km/h 76 % 0 mm
15:59 15.8 °C 11.6 °C 1013.4 hPa SSW 5 km/h 9.7 km/h 76 % 0 mm
16:04 15.7 °C 11.4 °C 1013.8 hPa SSW 4.8 km/h 16.1 km/h 76 % 0 mm
16:09 15.5 °C 11.3 °C 1013.8 hPa SSW 9.7 km/h 19.3 km/h 76 % 0 mm
16:14 15.3 °C 11.2 °C 1014.1 hPa SSW 4.8 km/h 16.1 km/h 77 % 0 mm
16:19 15 °C 11 °C 1014.1 hPa South 13.8 km/h 17.7 km/h 77 % 0 mm
16:24 14.8 °C 11 °C 1014.4 hPa SW 4.8 km/h 19.3 km/h 78 % 0 mm
16:29 14.7 °C 10.8 °C 1014.4 hPa SSW 4.8 km/h 19.3 km/h 78 % 0 mm
16:34 14.4 °C 10.6 °C 1014.4 hPa SSW 3.2 km/h 11.3 km/h 78 % 0 mm
16:39 14.2 °C 10.6 °C 1014.4 hPa SSW 3.2 km/h 12.9 km/h 79 % 0 mm
16:44 14.1 °C 10.5 °C 1014.1 hPa SSW 3.2 km/h 9.7 km/h 79 % 0 mm
16:54 13.7 °C 10.3 °C 1014.1 hPa SSW 8 km/h 12.9 km/h 80 % 0 mm
16:59 13.5 °C 10.3 °C 1013.8 hPa South 5 km/h 9.3 km/h 81 % 0 mm
17:04 13.3 °C 10.2 °C 1014.1 hPa South 4.8 km/h 19.3 km/h 81 % 0 mm
17:09 13.2 °C 10.2 °C 1014.1 hPa SSW 9.7 km/h 12.9 km/h 82 % 0 mm
17:14 13.1 °C 10.1 °C 1014.1 hPa SSW 4.8 km/h 20.9 km/h 82 % 0 mm
17:19 13 °C 10 °C 1014.1 hPa SSW 4.8 km/h 11.3 km/h 82 % 0 mm
17:24 12.9 °C 10.1 °C 1014.1 hPa SSW 9.7 km/h 16.1 km/h 83 % 0 mm
17:29 12.9 °C 10.1 °C 1014.1 hPa South 9.3 km/h 14.8 km/h 83 % 0 mm
17:34 12.9 °C 10.1 °C 1014.1 hPa SSW 9.7 km/h 19.3 km/h 83 % 0 mm
17:39 12.8 °C 10.2 °C 1013.8 hPa SSW 9.7 km/h 20.9 km/h 84 % 0 mm
17:44 12.9 °C 10.2 °C 1013.8 hPa SSW 11.3 km/h 19.3 km/h 84 % 0 mm
17:49 12.9 °C 10.3 °C 1014.1 hPa South 8.9 km/h 16.7 km/h 84 % 0 mm
17:54 13.1 °C 10.2 °C 1014.1 hPa SSW 9.7 km/h 16.1 km/h 83 % 0 mm
17:59 13.1 °C 10.2 °C 1014.1 hPa SW 10 km/h 22.2 km/h 83 % 0 mm
18:04 13.1 °C 10.2 °C 1014.1 hPa SSW 10.1 km/h 18.5 km/h 83 % 0 mm
18:09 13.1 °C 10.2 °C 1014.1 hPa SSW 6.6 km/h 13 km/h 83 % 0 mm
18:14 13.1 °C 10.2 °C 1014.4 hPa SSW 6 km/h 11.3 km/h 83 % 0 mm
18:19 13.1 °C 10.2 °C 1014.1 hPa SW 9.8 km/h 18.5 km/h 83 % 0 mm
18:24 13.1 °C 10.4 °C 1014.4 hPa SSW 10.3 km/h 20.4 km/h 84 % 0 mm
18:29 13.2 °C 10.3 °C 1014.4 hPa SSW 11.6 km/h 18.5 km/h 83 % 0 mm
18:34 13.3 °C 10.4 °C 1014.4 hPa SSW 8.4 km/h 22.2 km/h 83 % 0 mm
18:39 13.3 °C 10.5 °C 1014.4 hPa South 7.1 km/h 14.8 km/h 83 % 0 mm
18:44 13.4 °C 10.6 °C 1014.8 hPa SSW 11.3 km/h 24.1 km/h 83 % 0 mm
18:49 13.4 °C 10.6 °C 1014.8 hPa SSW 10 km/h 13 km/h 83 % 0 mm
18:54 13.5 °C 10.7 °C 1015.1 hPa South 7.4 km/h 13 km/h 83 % 0 mm
19:00 13.6 °C 10.7 °C 1015.1 hPa South 9.5 km/h 18.5 km/h 83 % 0 mm
19:05 13.6 °C 10.8 °C 1015.1 hPa SW 7.4 km/h 11.1 km/h 83 % 0 mm
19:10 13.6 °C 10.8 °C 1015.1 hPa SW 9.2 km/h 11.3 km/h 83 % 0 mm
19:15 13.7 °C 10.8 °C 1015.5 hPa SW 7.9 km/h 14.5 km/h 83 % 0 mm
19:20 13.7 °C 10.8 °C 1015.5 hPa SSW 8.5 km/h 9.3 km/h 83 % 0 mm
19:25 13.8 °C 10.9 °C 1015.5 hPa South 7.9 km/h 18.5 km/h 83 % 0 mm
19:30 13.8 °C 11 °C 1015.5 hPa SSW 5.8 km/h 9.3 km/h 83 % 0 mm
19:35 13.8 °C 11 °C 1015.5 hPa SSW 8.5 km/h 11.1 km/h 83 % 0 mm
19:40 13.9 °C 11.1 °C 1015.5 hPa SSE 7.2 km/h 13 km/h 83 % 0 mm
19:45 13.9 °C 11.1 °C 1015.1 hPa WSW 10.5 km/h 24.1 km/h 83 % 0 mm
19:50 13.9 °C 11.1 °C 1015.1 hPa SW 7.4 km/h 12.9 km/h 83 % 0 mm
19:55 13.9 °C 11.1 °C 1015.5 hPa SSW 11.4 km/h 16.7 km/h 83 % 0 mm
20:01 14 °C 11.2 °C 1015.8 hPa SSW 10.9 km/h 17.7 km/h 83 % 0 mm
20:06 14 °C 11.2 °C 1015.8 hPa SSW 8.7 km/h 13 km/h 83 % 0 mm
20:11 14 °C 11.2 °C 1016.1 hPa SSW 7.4 km/h 14.8 km/h 83 % 0 mm
20:16 14 °C 11.2 °C 1015.8 hPa South 7.7 km/h 14.8 km/h 83 % 0 mm
20:21 14 °C 11.2 °C 1016.1 hPa SW 7.1 km/h 18.5 km/h 83 % 0 mm
20:26 14 °C 11.2 °C 1016.1 hPa SSW 9 km/h 13 km/h 83 % 0 mm
20:31 14.1 °C 11.2 °C 1016.1 hPa SSW 7.6 km/h 16.7 km/h 83 % 0 mm
20:36 14.1 °C 11.2 °C 1016.1 hPa WSW 4.7 km/h 9.3 km/h 83 % 0 mm
20:41 14.1 °C 11.3 °C 1016.1 hPa SSW 1.6 km/h 9.3 km/h 83 % 0 mm
20:46 14.2 °C 11.3 °C 1016.1 hPa SSW 11.1 km/h 16.7 km/h 83 % 0 mm
20:51 14.3 °C 11.2 °C 1016.1 hPa SSW 6.9 km/h 14.8 km/h 82 % 0 mm
20:56 14.3 °C 11.2 °C 1016.1 hPa SSW 5.1 km/h 11.1 km/h 82 % 0 mm
21:01 14.3 °C 11.3 °C 1016.1 hPa SW 5.6 km/h 7.4 km/h 82 % 0 mm
21:06 14.3 °C 11.3 °C 1016.1 hPa SSW 8 km/h 11.1 km/h 82 % 0 mm
21:11 14.4 °C 11.3 °C 1015.8 hPa SSW 8.4 km/h 11.3 km/h 82 % 0 mm
21:17 14.4 °C 11.4 °C 1015.8 hPa SSW 6.9 km/h 14.5 km/h 82 % 0 mm
21:22 14.5 °C 11.4 °C 1016.1 hPa SSW 6.4 km/h 11.3 km/h 82 % 0 mm
21:27 14.5 °C 11.4 °C 1016.1 hPa SSW 8 km/h 9.3 km/h 82 % 0 mm
21:32 14.6 °C 11.5 °C 1015.8 hPa SSW 4.5 km/h 11.1 km/h 82 % 0 mm
21:37 14.6 °C 11.5 °C 1016.1 hPa SW 3.1 km/h 8 km/h 82 % 0 mm
21:42 14.6 °C 11.5 °C 1016.5 hPa SSW 6.6 km/h 9.7 km/h 82 % 0 mm
21:47 14.6 °C 11.6 °C 1016.5 hPa SW 4.5 km/h 5.6 km/h 82 % 0 mm
21:52 14.6 °C 11.4 °C 1016.1 hPa WSW 4.5 km/h 8 km/h 81 % 0 mm
21:57 14.6 °C 11.3 °C 1016.1 hPa WSW 2.1 km/h 5.6 km/h 81 % 0 mm
22:02 14.6 °C 11.3 °C 1016.1 hPa SSW 4.3 km/h 5.6 km/h 81 % 0 mm
22:07 14.5 °C 11.3 °C 1016.5 hPa WSW 2.3 km/h 5.6 km/h 81 % 0 mm
22:12 14.5 °C 11.3 °C 1016.5 hPa WSW 3.7 km/h 6.4 km/h 81 % 0 mm
22:18 14.4 °C 11.2 °C 1016.8 hPa WSW 7.9 km/h 9.3 km/h 81 % 0 mm
22:23 14.4 °C 11.4 °C 1016.5 hPa WSW 3.2 km/h 5.6 km/h 82 % 0 mm
22:28 14.4 °C 11.4 °C 1016.8 hPa SW 5.1 km/h 6.4 km/h 82 % 0 mm
22:33 14.4 °C 11.4 °C 1016.8 hPa WSW 7.4 km/h 11.1 km/h 82 % 0 mm
22:38 14.5 °C 11.4 °C 1016.5 hPa SW 1.4 km/h 3.7 km/h 82 % 0 mm
22:43 14.5 °C 11.4 °C 1016.1 hPa SW 7.9 km/h 14.8 km/h 82 % 0 mm
22:48 14.6 °C 11.3 °C 1015.8 hPa SSW 6.8 km/h 17.7 km/h 81 % 0 mm
22:53 14.6 °C 11.4 °C 1015.8 hPa SSW 6.4 km/h 9.3 km/h 81 % 0 mm
22:58 14.7 °C 11.5 °C 1015.8 hPa South 5.1 km/h 16.7 km/h 81 % 0 mm
23:03 14.8 °C 11.6 °C 1015.8 hPa SSW 8.5 km/h 14.8 km/h 81 % 0 mm
23:08 14.9 °C 11.5 °C 1016.1 hPa SW 8.5 km/h 14.8 km/h 80 % 0 mm
23:13 15.1 °C 11.6 °C 1016.1 hPa SW 11.7 km/h 16.7 km/h 80 % 0 mm
23:18 15.2 °C 11.6 °C 1016.1 hPa SSW 10.6 km/h 19.3 km/h 79 % 0 mm
23:23 15.3 °C 11.7 °C 1015.8 hPa SW 9.3 km/h 14.8 km/h 79 % 0 mm
23:28 15.4 °C 11.8 °C 1016.1 hPa South 7.1 km/h 17.7 km/h 79 % 0 mm
23:33 15.4 °C 11.6 °C 1016.1 hPa South 10.9 km/h 22.2 km/h 78 % 0 mm
23:38 15.6 °C 11.7 °C 1016.5 hPa WSW 10.9 km/h 14.8 km/h 78 % 0 mm
23:43 15.6 °C 11.7 °C 1016.1 hPa WSW 5.5 km/h 13 km/h 78 % 0 mm
23:49 15.6 °C 11.8 °C 1016.1 hPa SW 8 km/h 18.5 km/h 78 % 0 mm
23:54 15.7 °C 11.8 °C 1016.1 hPa SW 3.9 km/h 7.4 km/h 78 % 0 mm
23:59 15.7 °C 11.7 °C 1016.5 hPa WSW 11.9 km/h 17.7 km/h 77 % 0 mm
Crab Meadow Weather
Compliments of Weather Underground - 3 mb

Script developed by  Jim McMurry - jmcmurry@mwt.net Adapted for the template by  Wim van der Kuil - Leuven-Template.eu

Recycling: Every ton of mixed paper recycled can save the energy equivalent of 185 gallons of gas.